Date String (YYYY-MM-DD hh:mm:ss) UTC,Instrument flags,Ambient pressure (hPa),Sample flow (lpm),Bypass flow (lpm),Sample temperature (°C),Ambient temperature (°C),ASC tube jacket temperature (°C),LED temperature (°C),Box temperature (°C),Sample RH (%),Span deviation,Mass concentration (μg/m³),Mass concentration (μg/m³),Mass concentration (μg/m³)
DateTimeUTC,F1_M11,P_M11,Q1_M11,Q2_M11,T1_M11,T2_M11,T3_M11,T4_M11,T5_M11,U1_M11,ZSPAN_M11,X0_M11,X2_M11,X1_M11
2022-04-13 11:00:00,,0819.1,4.99,0.00,22.3,21.3,00.0,31.3,24.0,07.2,0000.0,0009.87,0005.83,0005.32
2022-04-13 11:01:00,,0819.1,5.00,0.00,22.3,21.3,00.0,31.3,23.9,07.2,0000.0,0009.43,0005.81,0005.34
2022-04-13 11:02:00,,0819.1,4.99,0.00,22.3,21.2,00.0,31.3,23.9,07.2,0000.0,0010.41,0005.84,0005.35
2022-04-13 11:03:00,,0819.2,4.99,0.00,22.2,21.3,00.0,31.3,23.9,07.2,0000.0,0010.87,0005.84,0005.37
2022-04-13 11:04:00,,0819.2,5.01,0.00,22.3,22.0,00.0,31.3,24.1,07.1,0000.0,0010.87,0005.83,0005.38
2022-04-13 11:05:00,,0819.2,5.00,0.00,22.4,22.8,00.0,31.4,24.3,07.1,0000.0,0011.21,0005.86,0005.39
2022-04-13 11:06:00,,0819.2,5.00,0.00,22.6,23.2,00.0,31.4,24.5,07.0,0000.0,0011.51,0005.96,0005.41
2022-04-13 11:07:00,,0819.2,5.00,0.00,22.6,23.0,00.0,31.4,24.5,07.0,0000.0,0012.11,0005.99,0005.43
2022-04-13 11:08:00,,0819.1,5.01,0.00,22.6,22.6,00.0,31.4,24.5,07.0,0000.0,0012.17,0006.00,0005.44
2022-04-13 11:09:00,,0819.2,4.98,0.00,22.6,22.4,00.0,31.4,24.4,07.0,0000.0,0011.91,0006.00,0005.45
2022-04-13 11:10:00,,0819.2,5.00,0.00,22.6,22.1,00.0,31.4,24.3,07.1,0000.0,0011.72,0005.97,0005.45
2022-04-13 11:11:00,,0819.2,5.00,0.00,22.5,22.0,00.0,31.4,24.2,07.1,0000.0,0011.74,0005.99,0005.46
2022-04-13 11:12:00,,0819.2,5.00,0.00,22.5,21.9,00.0,31.4,24.2,07.1,0000.0,0011.75,0006.02,0005.47
2022-04-13 11:13:00,,0819.2,5.00,0.00,22.5,21.7,00.0,31.4,24.2,07.1,0000.0,0011.04,0006.00,0005.48
2022-04-13 11:14:00,,0819.2,5.00,0.00,22.5,21.6,00.0,31.4,24.2,07.1,0000.0,0011.24,0006.01,0005.50
2022-04-13 11:15:00,,0819.2,5.00,0.00,22.4,21.5,00.0,31.4,24.1,07.1,0000.0,0011.32,0006.02,0005.52
2022-04-13 11:16:00,,0819.1,5.00,0.00,22.4,21.5,00.0,31.4,24.1,07.1,0000.0,0011.01,0006.05,0005.53
2022-04-13 11:17:00,,0819.1,5.02,0.00,22.4,21.4,00.0,31.4,24.1,07.1,0000.0,0011.06,0006.04,0005.53
2022-04-13 11:18:00,,0819.1,4.99,0.00,22.3,21.3,00.0,31.4,24.0,07.1,0000.0,0010.66,0006.05,0005.53
2022-04-13 11:19:00,,0819.3,5.00,0.00,22.3,21.3,00.0,31.4,24.0,07.1,0000.0,0010.66,0006.08,0005.55
2022-04-13 11:20:00,,0819.2,5.01,0.00,22.3,21.3,00.0,31.3,24.0,07.1,0000.0,0010.63,0006.10,0005.55
2022-04-13 11:21:00,,0819.3,4.99,0.00,22.3,21.5,00.0,31.3,24.0,07.1,0000.0,0010.43,0006.09,0005.54
2022-04-13 11:22:00,,0819.3,5.01,0.00,22.4,22.3,00.0,31.4,24.2,07.1,0000.0,0010.43,0006.09,0005.53
2022-04-13 11:23:00,,0819.3,5.00,0.00,22.5,23.1,00.0,31.4,24.5,07.0,0000.0,0010.49,0006.11,0005.52
2022-04-13 11:24:00,,0819.2,4.98,0.00,22.7,23.5,00.0,31.5,24.7,07.0,0000.0,0010.40,0006.13,0005.51
2022-04-13 11:25:00,,0819.2,5.00,0.00,22.7,23.3,00.0,31.5,24.7,06.9,0000.0,0009.73,0006.15,0005.48
2022-04-13 11:26:00,,0819.2,4.99,0.00,22.7,23.0,00.0,31.5,24.6,06.9,0000.0,0009.97,0006.15,0005.47
2022-04-13 11:27:00,,0819.3,5.01,0.00,22.7,22.7,00.0,31.5,24.6,06.9,0000.0,0010.10,0006.12,0005.46
2022-04-13 11:28:00,,0819.4,5.01,0.00,22.7,22.4,00.0,31.5,24.5,06.9,0000.0,0009.89,0006.07,0005.45
2022-04-13 11:29:00,,0819.3,5.00,0.00,22.6,22.2,00.0,31.5,24.4,07.0,0000.0,0009.84,0006.05,0005.44
2022-04-13 11:30:00,,0819.3,4.99,0.00,22.6,22.0,00.0,31.5,24.4,07.0,0000.0,0009.80,0006.02,0005.42
2022-04-13 11:31:00,,0819.3,5.00,0.00,22.6,21.9,00.0,31.5,24.3,06.9,0000.0,0010.04,0006.01,0005.43
2022-04-13 11:32:00,,0819.3,4.99,0.00,22.6,21.8,00.0,31.5,24.3,06.9,0000.0,0010.58,0006.03,0005.44
2022-04-13 11:33:00,,0819.3,5.01,0.00,22.5,21.7,00.0,31.5,24.3,06.9,0000.0,0010.65,0006.03,0005.44
2022-04-13 11:34:00,,0819.3,4.99,0.00,22.5,21.6,00.0,31.5,24.2,06.9,0000.0,0010.86,0006.02,0005.44
2022-04-13 11:35:00,,0819.2,4.99,0.00,22.5,21.5,00.0,31.5,24.2,06.9,0000.0,0011.64,0006.00,0005.44
2022-04-13 11:36:00,,0819.2,5.01,0.00,22.4,21.5,00.0,31.5,24.1,06.9,0000.0,0011.76,0005.97,0005.43
2022-04-13 11:37:00,,0819.3,5.00,0.00,22.4,21.4,00.0,31.4,24.1,06.9,0000.0,0011.58,0005.97,0005.44
2022-04-13 11:38:00,,0819.3,4.99,0.00,22.4,21.3,00.0,31.4,24.1,07.0,0000.0,0011.24,0005.97,0005.44
2022-04-13 11:39:00,,0819.4,5.00,0.00,22.4,21.3,00.0,31.4,24.0,07.0,0000.0,0011.19,0005.98,0005.44
2022-04-13 11:40:00,,0819.4,5.00,0.00,22.4,21.8,00.0,31.4,24.1,06.9,0000.0,0011.46,0005.98,0005.44
2022-04-13 11:41:00,,0819.4,4.99,0.00,22.5,22.6,00.0,31.5,24.4,06.9,0000.0,0011.77,0005.97,0005.43
2022-04-13 11:42:00,,0819.4,5.00,0.00,22.7,23.4,00.0,31.5,24.6,06.9,0000.0,0011.54,0005.96,0005.41
2022-04-13 11:43:00,,0819.5,5.00,0.00,22.8,23.5,00.0,31.5,24.7,06.8,0000.0,0011.07,0005.95,0005.40
2022-04-13 11:44:00,,0819.4,4.99,0.00,22.8,23.2,00.0,31.5,24.7,06.8,0000.0,0010.91,0005.95,0005.39
2022-04-13 11:45:00,,0819.4,5.01,0.00,22.7,22.8,00.0,31.5,24.6,06.8,0000.0,0010.80,0005.98,0005.40
2022-04-13 11:46:00,,0819.4,4.98,0.00,22.7,22.5,00.0,31.6,24.5,06.8,0000.0,0009.91,0005.96,0005.38
2022-04-13 11:47:00,,0819.4,5.00,0.00,22.7,22.2,00.0,31.5,24.4,06.8,0000.0,0009.81,0005.98,0005.39
2022-04-13 11:48:00,,0819.4,5.00,0.00,22.6,22.0,00.0,31.5,24.3,06.8,0000.0,0010.06,0005.99,0005.40
2022-04-13 11:49:00,,0819.4,5.00,0.00,22.6,21.8,00.0,31.5,24.3,06.8,0000.0,0010.05,0005.97,0005.39
2022-04-13 11:50:00,,0819.4,5.00,0.00,22.5,21.7,00.0,31.5,24.2,06.9,0000.0,0010.05,0005.98,0005.40
2022-04-13 11:51:00,,0819.4,5.01,0.00,22.5,21.5,00.0,31.5,24.1,06.9,0000.0,0009.83,0005.96,0005.40
2022-04-13 11:52:00,,0819.4,4.99,0.00,22.4,21.4,00.0,31.5,24.0,07.0,0000.0,0009.99,0005.96,0005.40
2022-04-13 11:53:00,,0819.5,4.99,0.00,22.3,21.3,00.0,31.5,23.9,07.0,0000.0,0009.97,0005.98,0005.41
2022-04-13 11:54:00,,0819.5,5.01,0.00,22.2,21.1,00.0,31.4,23.8,07.0,0000.0,0009.96,0005.99,0005.42
2022-04-13 11:55:00,,0819.5,5.00,0.00,22.2,20.9,00.0,31.4,23.7,07.0,0000.0,0010.13,0005.97,0005.42
2022-04-13 11:56:00,,0819.5,5.00,0.00,22.2,21.4,00.0,31.4,23.8,07.0,0000.0,0010.55,0005.94,0005.42
2022-04-13 11:57:00,,0819.5,4.99,0.00,22.3,22.3,00.0,31.4,24.1,07.0,0000.0,0010.80,0005.94,0005.43
2022-04-13 11:58:00,,0819.5,5.00,0.00,22.5,23.2,00.0,31.5,24.4,06.9,0000.0,0011.12,0005.96,0005.44
2022-04-13 11:59:00,,0819.5,5.00,0.00,22.6,23.3,00.0,31.5,24.5,06.9,0000.0,0010.89,0005.95,0005.45
